Location: Franzen
(48.6167°N, 15.3833°E)
Time: 02:42:11
(UTC+00:00)

Transit 2A - Pass Details

Date: 10 August 2021
Orbit: 594 x 964 km, 66.7° (Epoch: 21 September)

Event Time Altitude Azimuth Distance (km) Brightness Sun altitude
Rises 12:13:44 0° 320° (NW) 3,286 9.1 53.8°
Reaches altitude 10° 12:16:09 10° 313° (NW) 2,410 8.6 53.6°
Maximum altitude 12:21:24 43° 244° (WSW) 1,209 8.6 53.2°
Drops below altitude 10° 12:27:05 10° 175° (S) 2,606 9.4 52.7°
Sets 12:29:48 0° 169° (S) 3,582 9.8 52.4°
